Time,TemperatureF,DewpointF,PressureIn,WindDirection,WindDirectionDegrees,WindSpeedMPH,WindSpeedGustMPH,Humidity,HourlyPrecipIn,Conditions,Clouds,dailyrainin,SoftwareType,DateUTC
2013-09-18 00:10:00,76.6,73.1,29.95,WSW,247,4.7,-999.0,89,-99.99,,,0.00,Acu-Link.com,2013-09-18 05:10:00,
2013-09-18 03:16:00,76.5,70.2,29.94,South,180,0.0,-999.0,81,-99.99,,,0.00,Acu-Link.com,2013-09-18 08:16:00,
2013-09-18 03:31:00,76.3,70.4,29.94,SSW,202,0.0,-999.0,82,-99.99,,,0.00,Acu-Link.com,2013-09-18 08:31:00,
2013-09-18 03:47:00,76.1,70.5,29.93,SSW,202,0.0,-999.0,83,-99.99,,,0.00,Acu-Link.com,2013-09-18 08:47:00,
2013-09-18 04:02:00,75.9,70.7,29.93,SSW,202,0.0,-999.0,84,-99.99,,,0.00,Acu-Link.com,2013-09-18 09:02:00,
2013-09-18 04:17:00,75.7,70.6,29.93,South,180,0.0,-999.0,84,-99.99,,,0.00,Acu-Link.com,2013-09-18 09:17:00,
2013-09-18 04:32:00,75.6,70.7,29.92,South,180,0.0,-999.0,85,-99.99,,,0.00,Acu-Link.com,2013-09-18 09:32:00,
2013-09-18 05:26:00,74.7,71.9,29.91,SSE,157,0.0,-999.0,91,-99.99,,,0.00,Acu-Link.com,2013-09-18 10:26:00,
2013-09-18 05:41:00,74.3,72.5,29.91,SE,135,0.0,-999.0,94,-99.99,,,0.00,Acu-Link.com,2013-09-18 10:41:00,
2013-09-18 05:56:00,74.3,72.5,29.91,South,180,0.0,-999.0,94,-99.99,,,0.00,Acu-Link.com,2013-09-18 10:56:00,
2013-09-18 06:11:00,74.3,72.5,29.91,South,180,0.0,-999.0,94,-99.99,,,0.00,Acu-Link.com,2013-09-18 11:11:00,
2013-09-18 06:26:00,73.9,72.4,29.91,SE,135,0.0,-999.0,95,-99.99,,,0.00,Acu-Link.com,2013-09-18 11:26:00,
2013-09-18 07:26:00,74.1,72.6,29.92,SSE,157,0.0,-999.0,95,-99.99,,,0.00,Acu-Link.com,2013-09-18 12:26:00,
2013-09-18 07:41:00,74.8,72.0,29.93,South,180,0.0,-999.0,91,-99.99,,,0.00,Acu-Link.com,2013-09-18 12:41:00,
2013-09-18 07:56:00,75.2,71.7,29.93,South,180,4.3,-999.0,89,-99.99,,,0.00,Acu-Link.com,2013-09-18 12:56:00,
2013-09-18 08:11:00,75.2,72.4,29.94,South,180,3.8,-999.0,91,-99.99,,,0.00,Acu-Link.com,2013-09-18 13:11:00,
2013-09-18 08:27:00,76.1,72.6,29.94,South,180,3.1,-999.0,89,-99.99,,,0.00,Acu-Link.com,2013-09-18 13:27:00,
2013-09-18 08:42:00,78.1,72.1,29.94,South,180,0.0,-999.0,82,-99.99,,,0.00,Acu-Link.com,2013-09-18 13:42:00,
2013-09-18 08:57:00,77.5,72.0,29.95,SSW,202,8.3,-999.0,83,-99.99,,,0.00,Acu-Link.com,2013-09-18 13:57:00,
2013-09-18 09:12:00,78.4,72.1,29.95,SSW,202,7.4,-999.0,81,-99.99,,,0.00,Acu-Link.com,2013-09-18 14:12:00,
2013-09-18 09:28:00,78.8,72.5,29.96,SW,225,6.7,-999.0,81,-99.99,,,0.00,Acu-Link.com,2013-09-18 14:28:00,
2013-09-18 09:43:00,79.2,72.1,29.96,SW,225,0.0,-999.0,79,-99.99,,,0.00,Acu-Link.com,2013-09-18 14:43:00,
2013-09-18 09:58:00,80.2,72.7,29.96,West,270,0.0,-999.0,78,-99.99,,,0.00,Acu-Link.com,2013-09-18 14:58:00,
2013-09-18 10:13:00,81.3,73.0,29.96,West,270,4.7,-999.0,76,-99.99,,,0.00,Acu-Link.com,2013-09-18 15:13:00,
2013-09-18 10:28:00,82.4,73.3,29.96,West,270,8.9,-999.0,74,-99.99,,,0.00,Acu-Link.com,2013-09-18 15:28:00,
2013-09-18 10:44:00,83.5,73.1,29.95,WNW,292,9.8,-999.0,71,-99.99,,,0.00,Acu-Link.com,2013-09-18 15:44:00,
2013-09-18 11:14:00,85.5,71.9,29.96,WSW,247,11.9,-999.0,64,-99.99,,,0.00,Acu-Link.com,2013-09-18 16:14:00,
2013-09-18 11:29:00,86.2,71.6,29.95,WNW,292,11.4,-999.0,62,-99.99,,,0.00,Acu-Link.com,2013-09-18 16:29:00,
2013-09-18 11:44:00,87.4,71.8,29.96,SW,225,11.0,-999.0,60,-99.99,,,0.00,Acu-Link.com,2013-09-18 16:44:00,
2013-09-18 12:00:00,87.6,71.0,29.95,SW,225,11.0,-999.0,58,-99.99,,,0.00,Acu-Link.com,2013-09-18 17:00:00,
2013-09-18 12:15:00,88.7,70.4,29.94,South,180,7.4,-999.0,55,-99.99,,,0.00,Acu-Link.com,2013-09-18 17:15:00,
2013-09-18 12:30:00,89.6,70.2,29.94,SSW,202,7.8,-999.0,53,-99.99,,,0.00,Acu-Link.com,2013-09-18 17:30:00,
2013-09-18 12:45:00,88.3,70.1,29.93,SSW,202,10.3,-999.0,55,-99.99,,,0.00,Acu-Link.com,2013-09-18 17:45:00,
2013-09-18 13:00:00,89.6,68.5,29.93,SW,225,8.3,-999.0,50,-99.99,,,0.00,Acu-Link.com,2013-09-18 18:00:00,
2013-09-18 13:16:00,90.0,67.0,29.92,SSW,202,13.4,-999.0,47,-99.99,,,0.00,Acu-Link.com,2013-09-18 18:16:00,
2013-09-18 13:31:00,89.6,66.7,29.92,SSW,202,16.1,-999.0,47,-99.99,,,0.00,Acu-Link.com,2013-09-18 18:31:00,
2013-09-18 13:46:00,90.7,68.9,29.91,SSW,202,16.1,-999.0,49,-99.99,,,0.00,Acu-Link.com,2013-09-18 18:46:00,
2013-09-18 14:01:00,90.1,67.8,29.91,SW,225,13.0,-999.0,48,-99.99,,,0.00,Acu-Link.com,2013-09-18 19:01:00,
2013-09-18 14:16:00,91.2,68.1,29.90,SSW,202,7.8,-999.0,47,-99.99,,,0.00,Acu-Link.com,2013-09-18 19:16:00,
2013-09-18 14:32:00,91.2,66.2,29.89,South,180,13.4,-999.0,44,-99.99,,,0.00,Acu-Link.com,2013-09-18 19:32:00,
2013-09-18 14:47:00,91.6,65.2,29.88,SSE,157,16.1,-999.0,42,-99.99,,,0.00,Acu-Link.com,2013-09-18 19:47:00,
2013-09-18 15:02:00,92.1,65.0,29.88,South,180,8.9,-999.0,41,-99.99,,,0.00,Acu-Link.com,2013-09-18 20:02:00,
2013-09-18 15:17:00,91.9,66.2,29.87,SSW,202,11.0,-999.0,43,-99.99,,,0.00,Acu-Link.com,2013-09-18 20:17:00,
2013-09-18 15:33:00,92.8,67.0,29.86,SSW,202,11.4,-999.0,43,-99.99,,,0.00,Acu-Link.com,2013-09-18 20:33:00,
2013-09-18 15:48:00,93.9,65.1,29.86,SW,225,8.3,-999.0,39,-99.99,,,0.00,Acu-Link.com,2013-09-18 20:48:00,
2013-09-18 16:03:00,92.7,64.0,29.85,SW,225,12.5,-999.0,39,-99.99,,,0.00,Acu-Link.com,2013-09-18 21:03:00,
2013-09-18 16:18:00,93.6,61.7,29.84,SSE,157,9.8,-999.0,35,-99.99,,,0.00,Acu-Link.com,2013-09-18 21:18:00,
2013-09-18 16:33:00,93.0,62.8,29.84,SSW,202,8.3,-999.0,37,-99.99,,,0.00,Acu-Link.com,2013-09-18 21:33:00,
2013-09-18 16:49:00,92.7,63.3,29.84,SSW,202,13.0,-999.0,38,-99.99,,,0.00,Acu-Link.com,2013-09-18 21:49:00,
2013-09-18 17:04:00,93.6,62.5,29.83,SSW,202,8.9,-999.0,36,-99.99,,,0.00,Acu-Link.com,2013-09-18 22:04:00,
2013-09-18 17:19:00,93.4,63.2,29.82,SSE,157,10.3,-999.0,37,-99.99,,,0.00,Acu-Link.com,2013-09-18 22:19:00,
2013-09-18 17:34:00,93.0,63.6,29.82,SW,225,7.4,-999.0,38,-99.99,,,0.00,Acu-Link.com,2013-09-18 22:34:00,
2013-09-18 17:49:00,93.9,64.4,29.82,South,180,7.4,-999.0,38,-99.99,,,0.00,Acu-Link.com,2013-09-18 22:49:00,
2013-09-18 18:05:00,94.1,63.0,29.82,WSW,247,5.8,-999.0,36,-99.99,,,0.00,Acu-Link.com,2013-09-18 23:05:00,
2013-09-18 18:20:00,93.6,64.1,29.82,SSW,202,7.4,-999.0,38,-99.99,,,0.00,Acu-Link.com,2013-09-18 23:20:00,
2013-09-18 18:35:00,93.6,64.1,29.82,SSW,202,0.0,-999.0,38,-99.99,,,0.00,Acu-Link.com,2013-09-18 23:35:00,
2013-09-18 18:50:00,92.8,64.2,29.81,SSW,202,8.3,-999.0,39,-99.99,,,0.00,Acu-Link.com,2013-09-18 23:50:00,
2013-09-18 19:05:00,91.9,64.8,29.81,SW,225,10.3,-999.0,41,-99.99,,,0.00,Acu-Link.com,2013-09-19 00:05:00,
2013-09-18 19:21:00,90.9,65.2,29.81,SSW,202,6.7,-999.0,43,-99.99,,,0.00,Acu-Link.com,2013-09-19 00:21:00,
2013-09-18 19:36:00,89.8,65.6,29.81,SSW,202,7.8,-999.0,45,-99.99,,,0.00,Acu-Link.com,2013-09-19 00:36:00,
2013-09-18 19:51:00,89.2,65.7,29.82,SSW,202,0.0,-999.0,46,-99.99,,,0.00,Acu-Link.com,2013-09-19 00:51:00,
2013-09-18 20:06:00,88.3,66.1,29.82,South,180,4.7,-999.0,48,-99.99,,,0.00,Acu-Link.com,2013-09-19 01:06:00,
2013-09-18 20:22:00,87.8,65.6,29.83,South,180,5.1,-999.0,48,-99.99,,,0.00,Acu-Link.com,2013-09-19 01:22:00,
2013-09-18 20:37:00,87.6,65.5,29.83,SSE,157,5.8,-999.0,48,-99.99,,,0.00,Acu-Link.com,2013-09-19 01:37:00,
2013-09-18 20:52:00,87.3,65.7,29.84,SSE,157,6.3,-999.0,49,-99.99,,,0.00,Acu-Link.com,2013-09-19 01:52:00,
2013-09-18 21:07:00,86.4,64.9,29.85,South,180,6.3,-999.0,49,-99.99,,,0.00,Acu-Link.com,2013-09-19 02:07:00,
2013-09-18 21:22:00,86.2,65.3,29.85,SSE,157,6.3,-999.0,50,-99.99,,,0.00,Acu-Link.com,2013-09-19 02:22:00,
2013-09-18 21:38:00,85.6,64.8,29.86,South,180,5.1,-999.0,50,-99.99,,,0.00,Acu-Link.com,2013-09-19 02:38:00,
2013-09-18 21:53:00,84.9,64.7,29.85,South,180,7.4,-999.0,51,-99.99,,,0.00,Acu-Link.com,2013-09-19 02:53:00,
2013-09-18 22:08:00,84.7,64.6,29.86,SSW,202,7.4,-999.0,51,-99.99,,,0.00,Acu-Link.com,2013-09-19 03:08:00,
2013-09-18 22:23:00,84.4,63.7,29.86,SSE,157,7.8,-999.0,50,-99.99,,,0.00,Acu-Link.com,2013-09-19 03:23:00,
2013-09-18 22:38:00,84.6,63.8,29.86,SSW,202,6.7,-999.0,50,-99.99,,,0.00,Acu-Link.com,2013-09-19 03:38:00,
2013-09-18 22:54:00,84.9,63.6,29.86,South,180,9.4,-999.0,49,-99.99,,,0.00,Acu-Link.com,2013-09-19 03:54:00,
2013-09-18 23:09:00,83.7,63.6,29.86,South,180,9.8,-999.0,51,-99.99,,,0.00,Acu-Link.com,2013-09-19 04:09:00,
2013-09-18 23:24:00,81.0,63.8,29.86,SSE,157,6.7,-999.0,56,-99.99,,,0.00,Acu-Link.com,2013-09-19 04:24:00,
2013-09-18 23:39:00,79.9,63.8,29.87,SSE,157,5.8,-999.0,58,-99.99,,,0.00,Acu-Link.com,2013-09-19 04:39:00,
2013-09-18 23:54:00,80.1,63.4,29.87,South,180,7.8,-999.0,57,-99.99,,,0.00,Acu-Link.com,2013-09-19 04:54:00,